Home > Weather > Munich > Past weeks

Flag for Germany Weather for the Past 2 Weeks in Munich, Bavaria, Germany

Now
36 °F

Clear.


Feels Like: 36 °F
Forecast: 42 / 53 °F
Wind: No wind

Location: Munich / Franz Josef Strauss Airport

Current Time: Apr 30, 2016 at 2:03:06 AM

Latest Report: Apr 30, 2016 at 1:20 AM


Visibility: 10 mi

Pressure: 30.04 "Hg (28.14 "Hg at 526m altitude)

Humidity: 87%

Dew Point: 32 °F

Location of MunichLocation

Historic Weather in Munich — Graph

°F

Munich Temperature Yesterday

Maximum temperature yesterday: 59 °F (at 5:20 PM)
Minimum temperature yesterday: 27 °F (at 5:50 AM)
Average temperature yesterday: 45 °F

High & Low Weather Summary for the Past Weeks

 TemperatureHumidityPressure
High66 °F (Apr 22, 2:50 PM)100% (Apr 15, 1:20 AM)30.39 "Hg (Apr 15, 1:20 AM)
Low27 °F (Apr 29, 5:50 AM)28% (Apr 21, 5:20 PM)29.59 "Hg (Apr 17, 2:50 AM)
Average45 °F75%29.95 "Hg
* Reported Apr 15 1:20 AM — Apr 30 1:20 AM, Munich, Weather by CustomWeather, © 2016

Note: Actual official high and low records may vary slightly from our data, if they occured in-between our weather recording intervals... More about our weather records

Advertising

Munich Weather History for the Previous 24 Hours

Scroll right to see more
 ConditionsComfort  
Time TempWeatherWind HumidityBarometerVisibility
1:20 AM
Sat, Apr 30
36 °FClear.No wind87%30.04 "Hg10 mi
12:20 AM39 °FClear.2 mph75%30.04 "Hg10 mi
11:50 PM
Fri, Apr 29
39 °FClear.2 mph75%30.04 "Hg10 mi
11:20 PM41 °FClear.2 mph70%30.04 "Hg10 mi
10:20 PM45 °FClear.3 mph66%30.04 "Hg10 mi
9:50 PM46 °FClear.2 mph57%30.04 "Hg10 mi
9:20 PM48 °FSunny.3 mph54%30.04 "Hg10 mi
8:50 PM52 °FSunny.5 mph44%30.04 "Hg10 mi
8:20 PM54 °FSunny.5 mph41%30.04 "Hg10 mi
7:50 PM55 °FSunny.6 mph38%30.01 "Hg10 mi
7:20 PM57 °FSunny.7 mph33%30.01 "Hg10 mi
6:50 PM57 °FPassing clouds.7 mph33%30.01 "HgN/A
6:20 PM57 °FPassing clouds.7 mph33%30.01 "HgN/A
5:50 PM57 °FPassing clouds.6 mph31%30.01 "HgN/A
5:20 PM59 °FPassing clouds.3 mph34%30.04 "HgN/A
4:50 PM57 °FPassing clouds.5 mph33%30.04 "HgN/A
4:20 PM57 °FPassing clouds.5 mph33%30.04 "HgN/A
3:50 PM57 °FSunny.5 mph36%30.04 "Hg10 mi
3:20 PM57 °FSunny.5 mph39%30.04 "Hg10 mi
2:50 PM57 °FSunny.5 mph39%30.04 "Hg10 mi
2:20 PM55 °FSunny.3 mph41%30.07 "Hg10 mi
1:50 PM55 °FPassing clouds.6 mph36%30.07 "HgN/A
1:20 PM54 °FSunny.5 mph38%30.07 "Hg10 mi
12:50 PM52 °FScattered clouds.6 mph44%30.07 "HgN/A
12:20 PM54 °FScattered clouds.8 mph41%30.07 "HgN/A
11:50 AM52 °FPassing clouds.6 mph44%30.07 "HgN/A
11:20 AM52 °FPassing clouds.6 mph58%30.07 "HgN/A
10:50 AM50 °FSunny.5 mph58%30.09 "Hg10 mi
10:20 AM46 °FPassing clouds.7 mph66%30.09 "HgN/A
9:50 AM45 °FPassing clouds.5 mph76%30.09 "HgN/A
9:20 AM43 °FPassing clouds.3 mph76%30.09 "HgN/A
8:50 AM39 °FPassing clouds.3 mph87%30.09 "HgN/A
8:20 AM36 °FSunny.2 mph100%30.09 "Hg10 mi
7:20 AM30 °FFog.3 mph100%30.07 "HgN/A
6:50 AM28 °FChilly.2 mph100%30.07 "HgN/A
6:20 AM28 °FChilly.2 mph100%30.07 "HgN/A
5:50 AM27 °FLight fog.2 mph100%30.07 "HgN/A
5:20 AM28 °FLight fog.2 mph100%30.07 "HgN/A
4:20 AM28 °FFog.2 mph100%30.07 "HgN/A
3:50 AM28 °FFog.1 mph100%30.07 "HgN/A
3:20 AM28 °FFog.1 mph100%30.07 "HgN/A
2:50 AM28 °FFog.1 mph100%30.07 "HgN/A
2:20 AM28 °FFog.2 mph100%30.07 "HgN/A
Weather by CustomWeather, © 2016

See weather overviewHow to use our weather pages